This is the latest recevied weather packets stored in our database for station/object K7KRJ-10. If no packets are shown the sender has not sent any weather packets the latest 10 day(s).
| Time | Temp. | Humidity | Pressure | Rain* | Wind** | Luminosity | Snow |
|---|---|---|---|---|---|---|---|
| 1777200225 | 20.56° C | 33% | 1004.9 hPa | 0 mm | - | 0 W/m² | - |
| 1777199324 | 20.56° C | 32% | 1004.7 hPa | 0 mm | - | 0 W/m² | - |
| 1777198422 | 20.56° C | 33% | 1004.8 hPa | 0 mm | - | 0 W/m² | - |
| 1777197521 | 21.11° C | 33% | 1005 hPa | 0 mm | - | 0 W/m² | - |
| 1777196621 | 21.11° C | 33% | 1004.8 hPa | 0 mm | - | 0 W/m² | - |
| 1777195718 | 21.11° C | 33% | 1004.9 hPa | 0 mm | - | 0 W/m² | - |
| 1777194817 | 21.11° C | 32% | 1005.1 hPa | 0 mm | - | 0 W/m² | - |
| 1777193912 | 21.67° C | 32% | 1004.7 hPa | 0 mm | - | 0 W/m² | - |
| 1777193012 | 21.67° C | 32% | 1004.9 hPa | 0 mm | - | 0 W/m² | - |
| 1777192107 | 22.22° C | 30% | 1004.6 hPa | 0 mm | - | 0 W/m² | - |
| 1777191207 | 22.22° C | 29% | 1004.8 hPa | 0 mm | - | 0 W/m² | - |
| 1777190304 | 22.78° C | 27% | 1004.9 hPa | 0 mm | - | 0 W/m² | - |
| 1777189402 | 22.78° C | 24% | 1005.1 hPa | 0 mm | - | 0 W/m² | - |
| 1777188497 | 22.78° C | 17% | 1005.2 hPa | 0 mm | - | 0 W/m² | - |
| 1777187594 | 22.78° C | 18% | 1005 hPa | 0 mm | - | 0 W/m² | - |
| 1777186692 | 22.78° C | 18% | 1005 hPa | 0 mm | - | 0 W/m² | - |
| 1777185789 | 22.78° C | 17% | 1005.1 hPa | 0 mm | - | 0 W/m² | - |
| 1777184889 | 22.78° C | 18% | 1005 hPa | 0 mm | - | 0 W/m² | - |
| 1777183986 | 22.78° C | 19% | 1005.1 hPa | 0 mm | - | 0 W/m² | - |
| 1777183084 | 23.33° C | 18% | 1005 hPa | 0 mm | - | 0 W/m² | - |
| 1777182179 | 23.89° C | 18% | 1005.3 hPa | 0 mm | - | 0 W/m² | - |
| 1777181276 | 24.44° C | 17% | 1005.1 hPa | 0 mm | - | 0 W/m² | - |
| 1777180377 | 24.44° C | 20% | 1005.3 hPa | 0 mm | - | 0 W/m² | - |
| 1777179471 | 25° C | 20% | 1005.1 hPa | 0 mm | - | 0 W/m² | - |
| 1777178570 | 25° C | 21% | 1005.1 hPa | 0 mm | - | 0 W/m² | - |
* Rain latest hour (hover to see other rain measurements)
** Current wind speed in m/s (hover to see current wind gust speed)